Regional Weather Roundup
Issued by NWS

Home | Current Version | Previous Version | Graphics & Text | Print | Product List | Glossary On
Versions: 1 2 3 4 5 6 7 8 9 10 11 12 13 14 15 16 17 18 19 20 21 22 23 24 25 26 27 28 29 30 31 32 33 34 35 36 37 38 39 40 41 42 43 44 45 46 47 48 49 50
000
ASUS45 KBOU 261107
RWRCO

WEATHER ROUNDUP FOR COLORADO
NATIONAL WEATHER SERVICE DENVER/BOULDER CO
500 AM MDT SUN APR 26 2015

NOTE: "FAIR" INDICATES FEW OR NO CLOUDS BELOW 12000 FEET WITH NO
SIGNIFICANT WEATHER AND/OR OBSTRUCTIONS TO VISIBILITY.

COZ001>005-013-030-031-261200-
...NORTHWEST COLORADO...

CITY           SKY/WX    TMP DP  RH WIND       PRES   REMARKS
CRAIG          CLOUDY    38  34  85 SE3       29.74S
HAYDEN         CLOUDY    39  34  81 E5        29.75S
MEEKER         PTCLDY    35  32  88 CALM      29.73F
MOUNT WERNER   NOT AVBL
STEAMBOAT SPGS CLOUDY    37  36  93 NW5       29.76F
WALDEN         CLOUDY    34  32  93 SW3       29.81S
$$

COZ006>008-011-261200-
...WEST CENTRAL VALLEYS...

CITY           SKY/WX    TMP DP  RH WIND       PRES   REMARKS
GRAND JUNCTION CLOUDY    42  42 100 CALM      29.70F
MONTROSE       CLOUDY    41  37  86 S5        29.72F
EAGLE          CLOUDY    39  37  93 SW3       29.80F
RIFLE          PTCLDY    40  38  93 W3        29.72F
DELTA          CLOUDY    44  42  91 MISG      29.71S
NUCLA          RAIN      41  37  87 SW8       29.79R
$$

COZ017>023-064>068-261200-
...SOUTHWEST COLORADO...

CITY           SKY/WX    TMP DP  RH WIND       PRES   REMARKS
DURANGO        LGT RAIN  38  38 100 E6        29.78F
CORTEZ         LGT RAIN  38  37  97 E6        29.76F
PAGOSA SPRINGS LGT RAIN  36  35  96 CALM      29.82F
TELLURIDE      CLOUDY    33  33 100 CALM      29.78F
WOLF CREEK PAS NOT AVBL
$$

COZ009-010-012-014-032>034-037-058>063-261200-
...CENTRAL COLORADO...

CITY           SKY/WX    TMP DP  RH WIND       PRES   REMARKS
ASPEN          MOCLDY    35  34  96 CALM      29.76F
BUENA VISTA    MOCLDY    32  31  94 W6        29.80S WCI  26
COPPER MTN     CLOUDY    32  21  64 SE10      29.89S WCI  24
BERTHOUD PASS  HAZE      23  14  68 MISG      29.92F VSB<1/4
COTTONWOOD PAS MOCLDY    36  32  87 CALM      29.85R
GUNNISON       CLOUDY    36  28  75 N7        29.79F
KREMMLING      CLOUDY    36  34  93 CALM      29.81F
LEADVILLE      MOCLDY    26  25  96 NE3       29.82F
MONARCH PASS   MOCLDY    27  18  69 MISG      29.99F
SALIDA         MOCLDY    41  32  70 CALM      29.86S
SUNLIGHT       PTCLDY    30  28  93 SE3       29.86F FOG
WILKERSON PASS CLOUDY    28  28 100 S7        29.93S WCI  21
$$

COZ069>075-261200-
...SAN LUIS VALLEY/SANGRE DE CRISTO MOUNTAINS...

CITY           SKY/WX    TMP DP  RH WIND       PRES   REMARKS
ALAMOSA        MOCLDY    39  28  64 S9        29.80S
LA VETA PASS   MOCLDY    32  27  80 S12G22    29.86F WCI  23
SAGUACHE       MOCLDY    34  28  80 S9        29.80S WCI  26
$$

COZ035-036-038>040-261200-
...NORTHERN COLORADO FRONT RANGE...

CITY           SKY/WX    TMP DP  RH WIND       PRES   REMARKS
DENVER INTL AP LGT RAIN  41  39  93 NE17      29.80R
DMNS CITY PARK   N/A     44  40  86 E7        29.79S
AURORA         NOT AVBL
FRONT RANGE AP TSTM      41  41 100 NE16G23   29.81R
ERIE MUNI ARPT CLOUDY    44  42  93 E8        29.79S
BOULDER MUN AP RAIN      45  43  93 NE7G18    29.79R
CENTENNIAL     CLOUDY    41  39  93 VRB7      29.80R
BROOMFIELD     CLOUDY    45  43  93 E6        29.80R
FORT COLLINS   CLOUDY    45  41  87 SE17      29.81S
LONGMONT       LGT RAIN  46  44  91 E9        29.82R
$$

COZ041-046-047-076>085-087-088-261200-
...PIKES PEAK/PALMER DIVIDE AND SOUTHERN FOOTHILLS...

CITY           SKY/WX    TMP DP  RH WIND       PRES   REMARKS
COLO. SPRINGS  CLOUDY    48  44  86 SE13      29.79S
A. F. ACADEMY  MOCLDY    46  43  87 S8        29.79S
ELLICOTT       MOCLDY   N/A N/A N/A SE20G25   29.77R
FALCON         CLOUDY    45  43  95 SE14      29.82R
FORT CARSON    NOT AVBL
LIMON          CLOUDY    45  44  97 E21       29.79S
MONUMENT HILL  TSTM      39  37  93 CALM      29.80S
TRINIDAD       CLOUDY    40  27  59 NW8       29.73R
$$

COZ042>045-048>051-090-091-261200-
...NORTHEAST COLORADO...

CITY           SKY/WX    TMP DP  RH WIND       PRES   REMARKS
GREELEY ARPT   CLOUDY    45  37  76 SE16      29.82R
AKRON          FOG       44  44 100 E13       29.81S VSB 1
BURLINGTON     CLOUDY    44  43  96 NE16      29.81S FOG
WRAY           CLOUDY   N/A N/A N/A E14G22    29.84R FOG
STERLING       RAIN      46  45  93 E7        29.83R
HOLYOKE        CLOUDY    46  43  87 E10       29.86S FOG
FORT MORGAN    LGT RAIN  44  43  95 NE15      29.81F
$$

COZ086-089-092>099-261200-
...SOUTHEAST COLORADO...

CITY           SKY/WX    TMP DP  RH WIND       PRES   REMARKS
PUEBLO         CLOUDY    51  47  86 E12       29.73R
LA JUNTA       CLOUDY    54  47  77 E20       29.71R
LAMAR          CLOUDY    50  49  96 E13       29.75R FOG
SPRINGFIELD      N/A     50  48  93 E13       29.74R
$$


USA.gov is the U.S. government's official web portal to all federal, state and local government web resources and services.